Pine River, MN

7:00 AM CST on November 22, 2017 (GMT -0600)
Pine River Regional

Weather History for KPWC - November, 2012

Change the Weather History Date:

Saturday, November 3, 2012

  Actual Average Record
Temperature  
Mean Temperature 34 °F -  
Max Temperature 37 °F 42 °F 64 °F (2001)
Min Temperature 30 °F 27 °F 8 °F (2006)
Degree Days  
Heating Degree Days 32    
Moisture  
Dew Point 25 °F    
Average Humidity 72    
Maximum Humidity 87    
Minimum Humidity 60    
Precipitation  
Precipitation 0.00 in - - ()
Sea Level Pressure  
Sea Level Pressure 30.22 in    
Wind  
Wind Speed 3 mph (ESE)    
Max Wind Speed 9 mph    
Max Gust Speed -    
Visibility 10 miles    
Events      
Averages and records for this station are not official NWS values.
T = Trace of Precipitation, MM = Missing Value Source: NWS Daily Summary

Daily Weather History Graph

Daily Weather History Graph

Search for Another Location

Airport or City:

Trip Planner

Search our weather history database for the weather conditions in past years. The results will help you decide how hot, cold, wet, or windy it might be!

Date:

Astronomy

Nov. 03, 2012 Rise Set
Actual Time 8:03 AM CDT 5:58 PM CDT
Civil Twilight 7:31 AM CDT 6:30 PM CDT
Nautical Twilight 6:55 AM CDT 7:05 PM CDT
Astronomical Twilight 6:20 AM CDT 7:41 PM CDT
Moon 9:34 PM CDT (11/3) 12:14 PM CDT (11/3)
Length of Visible Light 10h 58m
Length of Day
9h 54m
Waning Gibbous, 80% of the Moon is Illuminated
Nov 3
Waning Gibbous
Nov 6
Last Quarter
Nov 13
New
Nov 20
First Quarter
Nov 28
Full

Hourly Weather History & Observations

Time (CDT) Temp. Windchill Dew Point Humidity Pressure Visibility Wind Dir Wind Speed Gust Speed Precip Events Conditions
12:13 AM 33.8 °F 28.6 °F 23.0 °F 65% 30.19 in 10.0 mi ENE 5.8 mph - N/A   Overcast
12:32 AM 33.8 °F 30.8 °F 23.0 °F 65% 30.19 in 10.0 mi East 3.5 mph - N/A   Overcast
12:53 AM 33.8 °F - 23.0 °F 65% 30.19 in 10.0 mi Calm Calm - N/A   Overcast
1:13 AM 33.8 °F - 23.0 °F 65% 30.20 in 10.0 mi Calm Calm - N/A   Overcast
1:33 AM 33.8 °F - 24.8 °F 70% 30.20 in 10.0 mi Calm Calm - N/A   Mostly Cloudy
1:53 AM 33.8 °F 29.6 °F 24.8 °F 70% 30.20 in 10.0 mi East 4.6 mph - N/A   Mostly Cloudy
2:13 AM 33.8 °F 30.8 °F 23.0 °F 65% 30.20 in 10.0 mi ENE 3.5 mph - N/A   Overcast
2:33 AM 33.8 °F 30.8 °F 23.0 °F 65% 30.20 in 10.0 mi ENE 3.5 mph - N/A   Overcast
2:53 AM 32.0 °F 27.5 °F 23.0 °F 69% 30.20 in 10.0 mi ENE 4.6 mph - N/A   Overcast
3:12 AM 32.0 °F 27.5 °F 23.0 °F 69% 30.20 in 10.0 mi East 4.6 mph - N/A   Overcast
3:33 AM 32.0 °F 27.5 °F 23.0 °F 69% 30.20 in 10.0 mi East 4.6 mph - N/A   Overcast
3:53 AM 30.2 °F 25.4 °F 24.8 °F 80% 30.19 in 10.0 mi East 4.6 mph - N/A   Overcast
4:13 AM 30.2 °F 25.4 °F 23.0 °F 75% 30.19 in 10.0 mi East 4.6 mph - N/A   Mostly Cloudy
4:52 AM 30.2 °F - 24.8 °F 80% 30.19 in 10.0 mi Calm Calm - N/A   Overcast
5:13 AM 32.0 °F 28.7 °F 24.8 °F 75% 30.20 in 10.0 mi SE 3.5 mph - N/A   Overcast
5:31 AM 32.0 °F 28.7 °F 24.8 °F 75% 30.20 in 10.0 mi ESE 3.5 mph - N/A   Overcast
5:52 AM 32.0 °F 28.7 °F 24.8 °F 75% 30.21 in 10.0 mi ESE 3.5 mph - N/A   Overcast
6:13 AM 32.0 °F 26.4 °F 24.8 °F 75% 30.21 in 10.0 mi ESE 5.8 mph - N/A   Overcast
6:32 AM 32.0 °F 27.5 °F 24.8 °F 75% 30.21 in 10.0 mi ESE 4.6 mph - N/A   Overcast
6:52 AM 30.2 °F 25.4 °F 24.8 °F 80% 30.20 in 10.0 mi ESE 4.6 mph - N/A   Mostly Cloudy
7:12 AM 30.2 °F 26.7 °F 24.8 °F 80% 30.20 in 10.0 mi SE 3.5 mph - N/A   Mostly Cloudy
7:33 AM 30.2 °F 26.7 °F 24.8 °F 80% 30.20 in 10.0 mi SE 3.5 mph - N/A   Overcast
7:53 AM 30.2 °F 26.7 °F 24.8 °F 80% 30.21 in 10.0 mi ESE 3.5 mph - N/A   Overcast
8:13 AM 30.2 °F - 24.8 °F 80% 30.21 in 10.0 mi Calm Calm - N/A   Overcast
8:33 AM 30.2 °F - 26.6 °F 86% 30.21 in 10.0 mi Calm Calm - N/A   Overcast
8:53 AM 30.2 °F - 26.6 °F 86% 30.22 in 10.0 mi Calm Calm - N/A   Overcast
9:13 AM 32.0 °F 26.4 °F 26.6 °F 80% 30.22 in 10.0 mi East 5.8 mph - N/A   Overcast
9:33 AM 32.0 °F 26.4 °F 26.6 °F 80% 30.23 in 10.0 mi East 5.8 mph - N/A   Mostly Cloudy
9:53 AM 33.8 °F 27.7 °F 26.6 °F 75% 30.23 in 10.0 mi East 6.9 mph - N/A   Mostly Cloudy
10:13 AM 32.0 °F 24.2 °F 24.8 °F 75% 30.23 in 10.0 mi ESE 9.2 mph - N/A   Overcast
10:33 AM 32.0 °F 24.8 °F 24.8 °F 75% 30.23 in 10.0 mi SE 8.1 mph - N/A   Overcast
10:52 AM 33.8 °F 28.6 °F 24.8 °F 70% 30.23 in 10.0 mi ESE 5.8 mph - N/A   Overcast
11:13 AM 33.8 °F 28.6 °F 24.8 °F 70% 30.23 in 10.0 mi ESE 5.8 mph - N/A   Overcast
11:33 AM 33.8 °F 28.6 °F 26.6 °F 75% 30.23 in 10.0 mi SE 5.8 mph - N/A   Overcast
11:53 AM 33.8 °F 28.6 °F 26.6 °F 75% 30.24 in 10.0 mi SE 5.8 mph - N/A   Overcast
12:13 PM 33.8 °F 28.6 °F 26.6 °F 75% 30.23 in 10.0 mi SE 5.8 mph - N/A   Overcast
12:32 PM 33.8 °F 28.6 °F 26.6 °F 75% 30.23 in 10.0 mi East 5.8 mph - N/A   Overcast
12:52 PM 33.8 °F 29.6 °F 26.6 °F 75% 30.23 in 10.0 mi SE 4.6 mph - N/A   Overcast
1:13 PM 35.6 °F 29.9 °F 26.6 °F 70% 30.23 in 10.0 mi SSE 6.9 mph - N/A   Overcast
1:33 PM 35.6 °F 31.7 °F 24.8 °F 65% 30.23 in 10.0 mi SSE 4.6 mph - N/A   Overcast
1:53 PM 35.6 °F 31.7 °F 26.6 °F 70% 30.23 in 10.0 mi SE 4.6 mph - N/A   Overcast
2:13 PM 35.6 °F 31.7 °F 26.6 °F 70% 30.22 in 10.0 mi SE 4.6 mph - N/A   Overcast
2:33 PM 35.6 °F 29.9 °F 24.8 °F 65% 30.22 in 10.0 mi ESE 6.9 mph - N/A   Overcast
2:52 PM 37.4 °F 32.8 °F 24.8 °F 60% 30.22 in 10.0 mi ESE 5.8 mph - N/A   Overcast
3:12 PM 37.4 °F 33.8 °F 26.6 °F 65% 30.22 in 10.0 mi SSE 4.6 mph - N/A   Overcast
3:33 PM 37.4 °F 34.9 °F 26.6 °F 65% 30.21 in 10.0 mi SSE 3.5 mph - N/A   Overcast
3:53 PM 37.4 °F 34.9 °F 24.8 °F 60% 30.22 in 10.0 mi SSE 3.5 mph - N/A   Overcast
4:13 PM 37.4 °F 34.9 °F 24.8 °F 60% 30.21 in 10.0 mi SE 3.5 mph - N/A   Overcast
4:32 PM 37.4 °F - 26.6 °F 65% 30.21 in 10.0 mi Calm Calm - N/A   Overcast
4:53 PM 37.4 °F - 26.6 °F 65% 30.21 in 10.0 mi Calm Calm - N/A   Overcast
5:13 PM 37.4 °F - 24.8 °F 60% 30.21 in 10.0 mi Calm Calm - N/A   Overcast
5:31 PM 37.4 °F - 24.8 °F 60% 30.21 in 10.0 mi Calm Calm - N/A   Overcast
5:53 PM 37.4 °F - 26.6 °F 65% 30.22 in 10.0 mi Calm Calm - N/A   Overcast
6:13 PM 37.4 °F - 26.6 °F 65% 30.21 in 10.0 mi Calm Calm - N/A   Overcast
6:33 PM 35.6 °F - 26.6 °F 70% 30.21 in 10.0 mi Calm Calm - N/A   Overcast
6:53 PM 35.6 °F - 26.6 °F 70% 30.22 in 10.0 mi Calm Calm - N/A   Overcast
7:13 PM 35.6 °F - 26.6 °F 70% 30.22 in 10.0 mi Calm Calm - N/A   Overcast
7:32 PM 35.6 °F - 26.6 °F 70% 30.23 in 10.0 mi Calm Calm - N/A   Overcast
7:52 PM 33.8 °F - 26.6 °F 75% 30.23 in 10.0 mi Calm Calm - N/A   Overcast
8:13 PM 33.8 °F - 26.6 °F 75% 30.24 in 10.0 mi Calm Calm - N/A   Overcast
8:33 PM 33.8 °F - 26.6 °F 75% 30.24 in 7.0 mi Calm Calm - N/A   Overcast
8:53 PM 33.8 °F - 26.6 °F 75% 30.24 in 10.0 mi Calm Calm - N/A   Overcast
9:13 PM 33.8 °F - 26.6 °F 75% 30.24 in 10.0 mi Calm Calm - N/A   Overcast
9:33 PM 33.8 °F - 26.6 °F 75% 30.24 in 10.0 mi Calm Calm - N/A   Overcast
9:52 PM 32.0 °F - 28.4 °F 87% 30.24 in 10.0 mi Calm Calm - N/A   Overcast
10:12 PM 32.0 °F - 26.6 °F 80% 30.24 in 10.0 mi Calm Calm - N/A   Overcast
10:32 PM 33.8 °F - 28.4 °F 81% 30.24 in 10.0 mi Calm Calm - N/A   Overcast
10:52 PM 32.0 °F - 26.6 °F 80% 30.24 in 10.0 mi Calm Calm - N/A   Overcast
11:13 PM 33.8 °F - 26.6 °F 75% 30.24 in 10.0 mi Calm Calm - N/A   Overcast
11:33 PM 33.8 °F - 26.6 °F 75% 30.25 in 10.0 mi Calm Calm - N/A   Overcast